Location: Al Mulaqqa?ah
(24.1833°N, 32.8833°E)
Time: 21:25:46
(UTC+00:00)

Cosmos 1782 Rocket - Pass Details

Date: 26 September 2021
Orbit: 605 x 633 km, 82.5° (Epoch: 23 October)

Event Time Altitude Azimuth Distance (km) Brightness Sun altitude
Rises 16:04:36 0° 162° (SSE) 2,908 6.8 -6.3°
Reaches altitude 10° 16:07:03 10° 151° (SSE) 2,001 5.9 -6.9°
Maximum altitude 16:10:54 29° 91° (E) 1,147 4.4 -7.7°
Drops below altitude 10° 16:14:44 10° 31° (NNE) 1,997 5.9 -8.6°
Sets 16:17:10 0° 20° (NNE) 2,902 6.8 -9.2°
